User: anonymous   Login
Location: Morlupo
(42.1333°N, 12.5000°E)
Time: 10:35:58
(UTC+00:00)
Language:

CSL-04 Rocket - Orbit

View from above orbital plane
View from above orbital plane
View from above satellite
View from above satellite

Ground track
Ground track

The orbit data is extracted from the following two-line orbital elements,

1 25732U 99025C   20336.83314247 -.00000011  00000-0  16463-4 0  9997
2 25732  98.9278   6.5913 0038345  93.5166  79.1544 14.17684658115536
Epoch (UTC): 01 December 2020 19:59:43
Eccentricity: 0.0038345
inclination: 98.9278°
perigee height: 805 km
apogee height: 861 km
right ascension of ascending node: 6.5913°
argument of perigee: 93.5166°
revolutions per day: 14.17684658
mean anomaly at epoch: 79.1544°
orbit number at epoch: 11553

The dashed part of the orbit path shows where the satellite is in the earth's shadow,  

DLR